TimeCDT,TemperatureF,Dew PointF,Humidity,Sea Level PressureIn,VisibilityMPH,Wind Direction,Wind SpeedMPH,Gust SpeedMPH,PrecipitationIn,Events,Conditions,WindDirDegrees,DateUTC
12:15 AM,41.0,41.0,100,30.32,10.0,Calm,Calm,-,N/A,Rain,Light Rain,0,2013-09-16 05:15:00
12:35 AM,39.2,39.2,100,30.31,10.0,Calm,Calm,-,0.01,Rain,Light Rain,0,2013-09-16 05:35:00
12:55 AM,39.2,39.2,100,30.31,10.0,ESE,3.5,-,0.01,Rain,Light Rain,110,2013-09-16 05:55:00
1:15 AM,39.2,39.2,100,30.31,10.0,Calm,Calm,-,N/A,Rain,Light Rain,0,2013-09-16 06:15:00
1:35 AM,39.2,39.2,100,30.31,10.0,Calm,Calm,-,0.01,Rain,Light Rain,0,2013-09-16 06:35:00
1:55 AM,39.2,39.2,100,30.31,10.0,Calm,Calm,-,0.02,Rain,Light Rain,0,2013-09-16 06:55:00
2:15 AM,37.4,37.4,100,30.31,10.0,Calm,Calm,-,N/A,Rain,Light Rain,0,2013-09-16 07:15:00
2:35 AM,37.4,37.4,100,30.31,10.0,Calm,Calm,-,0.01,Rain,Light Rain,0,2013-09-16 07:35:00
2:55 AM,37.4,37.4,100,30.31,10.0,Calm,Calm,-,0.02,Rain,Light Rain,0,2013-09-16 07:55:00
3:15 AM,37.4,37.4,100,30.31,10.0,Calm,Calm,-,N/A,,Clear,0,2013-09-16 08:15:00
3:35 AM,37.4,37.4,100,30.31,10.0,Calm,Calm,-,N/A,,Clear,0,2013-09-16 08:35:00
3:55 AM,35.6,35.6,100,30.31,10.0,Calm,Calm,-,N/A,,Clear,0,2013-09-16 08:55:00
4:15 AM,37.4,37.4,100,30.31,10.0,Calm,Calm,-,N/A,,Clear,0,2013-09-16 09:15:00
4:35 AM,37.4,37.4,100,30.31,10.0,Calm,Calm,-,N/A,,Clear,0,2013-09-16 09:35:00
4:55 AM,35.6,35.6,100,30.32,10.0,Calm,Calm,-,N/A,,Clear,0,2013-09-16 09:55:00
5:15 AM,35.6,35.6,100,30.32,5.0,Calm,Calm,-,N/A,,Clear,0,2013-09-16 10:15:00
5:35 AM,35.6,35.6,100,30.31,10.0,Calm,Calm,-,N/A,,Clear,0,2013-09-16 10:35:00
5:55 AM,35.6,35.6,100,30.31,10.0,SE,3.5,-,N/A,,Clear,130,2013-09-16 10:55:00
6:15 AM,35.6,35.6,100,30.31,10.0,South,4.6,-,N/A,,Clear,170,2013-09-16 11:15:00
6:35 AM,32.0,32.0,100,30.31,10.0,SSE,4.6,-,N/A,,Clear,150,2013-09-16 11:35:00
6:55 AM,32.0,32.0,100,30.31,10.0,SE,5.8,-,N/A,,Clear,140,2013-09-16 11:55:00
7:15 AM,33.8,33.8,100,30.31,10.0,SE,6.9,-,N/A,,Clear,140,2013-09-16 12:15:00
7:35 AM,33.8,33.8,100,30.31,10.0,SSE,4.6,-,N/A,,Clear,150,2013-09-16 12:35:00
7:55 AM,35.6,35.6,100,30.31,10.0,SE,4.6,-,N/A,,Clear,140,2013-09-16 12:55:00
8:15 AM,37.4,37.4,100,30.30,10.0,SSE,4.6,-,N/A,,Clear,150,2013-09-16 13:15:00
8:35 AM,42.8,42.8,100,30.30,10.0,SSE,5.8,-,N/A,,Clear,150,2013-09-16 13:35:00
8:55 AM,44.6,44.6,100,30.30,10.0,South,6.9,-,0.01,Rain,Light Rain,170,2013-09-16 13:55:00
9:15 AM,48.2,48.2,100,30.30,10.0,SSE,6.9,-,N/A,Rain,Light Rain,160,2013-09-16 14:15:00
9:35 AM,50.0,50.0,100,30.30,10.0,South,6.9,-,0.01,Rain,Light Rain,170,2013-09-16 14:35:00
9:55 AM,53.6,51.8,94,30.30,10.0,South,11.5,-,0.01,Rain,Light Rain,180,2013-09-16 14:55:00
10:15 AM,55.4,53.6,94,30.29,10.0,South,15.0,-,N/A,Rain,Light Rain,170,2013-09-16 15:15:00
10:35 AM,57.2,51.8,82,30.29,10.0,South,11.5,-,N/A,,Clear,180,2013-09-16 15:35:00
10:55 AM,57.2,51.8,82,30.28,10.0,South,12.7,-,N/A,,Clear,180,2013-09-16 15:55:00
11:15 AM,59.0,53.6,82,30.28,10.0,SSW,13.8,19.6,N/A,,Clear,200,2013-09-16 16:15:00
11:35 AM,60.8,53.6,77,30.27,10.0,South,17.3,20.7,N/A,,Clear,170,2013-09-16 16:35:00
11:55 AM,62.6,53.6,72,30.27,10.0,South,13.8,-,N/A,,Clear,180,2013-09-16 16:55:00
12:15 PM,62.6,53.6,72,30.26,10.0,South,16.1,21.9,N/A,,Partly Cloudy,190,2013-09-16 17:15:00
12:35 PM,62.6,51.8,68,30.26,10.0,SSW,17.3,23.0,N/A,,Scattered Clouds,200,2013-09-16 17:35:00
12:55 PM,62.6,50.0,63,30.25,10.0,South,18.4,23.0,N/A,,Scattered Clouds,190,2013-09-16 17:55:00
1:15 PM,64.4,50.0,59,30.25,10.0,SSW,15.0,23.0,N/A,,Partly Cloudy,200,2013-09-16 18:15:00
1:35 PM,66.2,50.0,56,30.24,10.0,South,18.4,25.3,N/A,,Partly Cloudy,170,2013-09-16 18:35:00
1:55 PM,66.2,48.2,52,30.23,10.0,South,15.0,24.2,N/A,,Clear,190,2013-09-16 18:55:00
2:15 PM,66.2,48.2,52,30.22,10.0,South,17.3,26.5,N/A,,Clear,180,2013-09-16 19:15:00
2:35 PM,68.0,50.0,52,30.20,10.0,South,18.4,26.5,N/A,,Clear,190,2013-09-16 19:35:00
2:55 PM,68.0,48.2,49,30.19,10.0,SSW,17.3,28.8,N/A,,Clear,200,2013-09-16 19:55:00
3:15 PM,68.0,50.0,52,30.18,10.0,South,18.4,25.3,N/A,,Clear,170,2013-09-16 20:15:00
3:35 PM,68.0,50.0,52,30.17,10.0,South,17.3,26.5,N/A,,Clear,180,2013-09-16 20:35:00
3:55 PM,68.0,48.2,49,30.16,10.0,SSE,18.4,25.3,N/A,,Clear,160,2013-09-16 20:55:00
4:15 PM,68.0,48.2,49,30.15,10.0,South,19.6,25.3,N/A,,Clear,190,2013-09-16 21:15:00
4:35 PM,68.0,48.2,49,30.14,10.0,South,16.1,26.5,N/A,,Clear,170,2013-09-16 21:35:00
4:55 PM,68.0,48.2,49,30.13,10.0,South,17.3,25.3,N/A,,Clear,170,2013-09-16 21:55:00
5:15 PM,68.0,48.2,49,30.13,10.0,South,17.3,27.6,N/A,,Clear,180,2013-09-16 22:15:00
5:35 PM,68.0,48.2,49,30.12,10.0,South,17.3,24.2,N/A,,Clear,190,2013-09-16 22:35:00
5:55 PM,66.2,48.2,52,30.11,10.0,South,18.4,25.3,N/A,,Clear,170,2013-09-16 22:55:00
6:15 PM,66.2,48.2,52,30.11,10.0,South,18.4,24.2,N/A,,Clear,170,2013-09-16 23:15:00
6:35 PM,66.2,48.2,52,30.10,10.0,South,17.3,23.0,N/A,,Clear,170,2013-09-16 23:35:00
6:55 PM,64.4,48.2,56,30.10,10.0,South,17.3,25.3,N/A,,Clear,180,2013-09-16 23:55:00
7:15 PM,62.6,48.2,59,30.09,10.0,South,15.0,21.9,N/A,,Clear,180,2013-09-17 00:15:00
7:35 PM,62.6,48.2,59,30.08,10.0,South,13.8,20.7,N/A,,Clear,170,2013-09-17 00:35:00
7:55 PM,59.0,48.2,67,30.08,10.0,South,10.4,-,N/A,,Clear,170,2013-09-17 00:55:00
8:15 PM,55.4,50.0,82,30.07,10.0,SSE,9.2,-,N/A,,Clear,160,2013-09-17 01:15:00
8:35 PM,53.6,50.0,88,30.07,10.0,SSE,10.4,-,N/A,,Clear,160,2013-09-17 01:35:00
8:55 PM,53.6,50.0,88,30.07,10.0,SSE,12.7,-,N/A,,Clear,160,2013-09-17 01:55:00
9:15 PM,55.4,50.0,82,30.07,10.0,SSE,11.5,-,N/A,,Clear,160,2013-09-17 02:15:00
9:35 PM,55.4,50.0,82,30.06,10.0,SSE,11.5,-,N/A,,Clear,160,2013-09-17 02:35:00
9:55 PM,53.6,50.0,88,30.06,10.0,SSE,11.5,-,N/A,,Clear,160,2013-09-17 02:55:00
10:15 PM,53.6,50.0,88,30.06,10.0,SSE,11.5,-,N/A,,Clear,160,2013-09-17 03:15:00
10:35 PM,53.6,50.0,88,30.06,10.0,SSE,11.5,-,N/A,,Clear,160,2013-09-17 03:35:00
10:55 PM,53.6,50.0,88,30.05,10.0,SSE,11.5,-,N/A,,Clear,160,2013-09-17 03:55:00
11:15 PM,53.6,50.0,88,30.05,10.0,SSE,12.7,-,N/A,,Clear,160,2013-09-17 04:15:00
11:35 PM,53.6,50.0,88,30.05,10.0,South,12.7,-,N/A,,Clear,170,2013-09-17 04:35:00
11:55 PM,53.6,50.0,88,30.04,10.0,SSE,13.8,-,N/A,,Clear,160,2013-09-17 04:55:00